| time (UTC) | temp C | wind direction | speed KPH | gust KPH | rain 1hr cm | rain 24hr cm | rain mn cm | humidity % | barometer mb |
| 20260504081529 | 5 | 272 | 0.0 | 0.0 | 0.00 | 0.00 | 0.00 | 86 | 978.2 |
| 20260504050018 | 5 | 292 | 1.6 | 0.0 | 0.00 | 0.00 | 0.00 | 86 | 978.3 |
| 20260504044514 | 4 | 293 | 0.0 | 0.0 | 0.00 | 0.00 | 0.00 | 92 | 978.3 |
| 20260504043010 | 4 | 293 | 0.0 | 0.0 | 0.00 | 0.00 | 0.00 | 91 | 978.3 |
| 20260504041505 | 4 | 293 | 0.0 | 0.0 | 0.00 | 0.00 | 0.00 | 90 | 978.1 |
| 20260504040002 | 4 | 293 | 0.0 | 0.0 | 0.00 | 0.00 | 0.00 | 89 | 978.2 |
| 20260504034634 | 5 | 292 | 0.0 | 0.0 | 0.00 | 0.00 | 0.00 | 87 | 978.0 |
| 20260504033059 | 5 | 293 | 0.0 | 0.0 | 0.00 | 0.00 | 0.00 | 85 | 978.0 |
| 20260504031559 | 5 | 293 | 0.0 | 0.0 | 0.00 | 0.00 | 0.00 | 84 | 977.9 |
| 20260504030121 | 5 | 293 | 0.0 | 0.0 | 0.00 | 0.00 | 0.00 | 82 | 977.8 |
| 20260504024601 | 6 | 293 | 0.0 | 0.0 | 0.00 | 0.00 | 0.00 | 81 | 977.9 |
| 20260504023057 | 6 | 292 | 0.0 | 0.0 | 0.00 | 0.00 | 0.00 | 79 | 977.9 |
| 20260504021558 | 7 | 292 | 0.0 | 0.0 | 0.00 | 0.00 | 0.00 | 77 | 977.8 |
| 20260504020107 | 7 | 292 | 0.0 | 0.0 | 0.00 | 0.00 | 0.00 | 75 | 977.8 |
| 20260504014604 | 8 | 293 | 0.0 | 0.0 | 0.00 | 0.00 | 0.00 | 73 | 977.7 |
| 20260504013057 | 9 | 293 | 0.0 | 0.0 | 0.00 | 0.00 | 0.00 | 70 | 977.5 |
| 20260504011555 | 10 | 293 | 0.0 | 0.0 | 0.00 | 0.00 | 0.00 | 67 | 977.4 |
| 20260504010055 | 10 | 293 | 0.0 | 0.0 | 0.00 | 0.00 | 0.00 | 63 | 977.3 |
| 20260504004554 | 11 | 292 | 0.0 | 0.0 | 0.00 | 0.00 | 0.00 | 60 | 977.1 |
| 20260504003055 | 11 | 292 | 0.0 | 0.0 | 0.00 | 0.00 | 0.00 | 57 | 976.9 |
| 20260504001604 | 12 | 293 | 0.0 | 0.0 | 0.00 | 0.00 | 0.00 | 55 | 976.6 |
| 20260504000056 | 12 | 294 | 0.0 | 0.0 | 0.00 | 0.00 | 0.00 | 53 | 976.5 |
| 20260503234552 | 13 | 298 | 1.6 | 0.0 | 0.00 | 0.00 | 0.00 | 52 | 976.5 |
| 20260503233051 | 13 | 275 | 1.6 | 0.0 | 0.00 | 0.00 | 0.00 | 52 | 976.2 |
| 20260503231553 | 13 | 240 | 3.2 | 0.0 | 0.00 | 0.00 | 0.00 | 51 | 976.3 |
| 20260503230051 | 14 | 277 | 3.2 | 0.0 | 0.00 | 0.00 | 0.00 | 50 | 976.2 |
| 20260503224551 | 14 | 264 | 3.2 | 0.0 | 0.00 | 0.00 | 0.00 | 49 | 976.1 |
| 20260503223050 | 15 | 292 | 3.2 | 0.0 | 0.00 | 0.00 | 0.00 | 50 | 976.1 |
| 20260503221550 | 15 | 280 | 8.0 | 0.0 | 0.00 | 0.00 | 0.00 | 49 | 976.1 |
| 20260503220048 | 14 | 259 | 6.4 | 0.0 | 0.00 | 0.00 | 0.00 | 49 | 976.2 |
| 20260503214559 | 14 | 275 | 4.8 | 0.0 | 0.00 | 0.00 | 0.00 | 50 | 976.1 |
| 20260503213048 | 14 | 281 | 6.4 | 0.0 | 0.00 | 0.00 | 0.00 | 48 | 976.2 |
| 20260503211552 | 14 | 283 | 6.4 | 0.0 | 0.00 | 0.00 | 0.00 | 48 | 976.2 |
| 20260503210044 | 13 | 285 | 4.8 | 0.0 | 0.00 | 0.00 | 0.00 | 49 | 976.1 |
| 20260503204552 | 13 | 269 | 4.8 | 0.0 | 0.00 | 0.00 | 0.00 | 48 | 976.1 |
| 20260503203047 | 13 | 283 | 8.0 | 0.0 | 0.00 | 0.00 | 0.00 | 49 | 976.3 |
| 20260503201541 | 13 | 309 | 6.4 | 0.0 | 0.00 | 0.00 | 0.00 | 52 | 976.3 |
| 20260503200040 | 13 | 324 | 6.4 | 0.0 | 0.00 | 0.00 | 0.00 | 49 | 976.5 |
| 20260503194542 | 13 | 27 | 11.3 | 0.0 | 0.00 | 0.00 | 0.00 | 51 | 976.7 |
| 20260503193041 | 13 | 325 | 9.7 | 0.0 | 0.00 | 0.00 | 0.00 | 50 | 976.8 |
| 20260503191537 | 13 | 291 | 8.0 | 0.0 | 0.00 | 0.00 | 0.00 | 54 | 976.8 |
| 20260503190045 | 13 | 279 | 9.7 | 0.0 | 0.00 | 0.00 | 0.00 | 49 | 977.1 |
| 20260503184536 | 13 | 300 | 11.3 | 0.0 | 0.00 | 0.00 | 0.00 | 49 | 977.2 |
| 20260503183040 | 13 | 294 | 9.7 | 0.0 | 0.00 | 0.00 | 0.00 | 50 | 977.3 |
| 20260503181532 | 12 | 329 | 11.3 | 0.0 | 0.00 | 0.00 | 0.00 | 50 | 977.4 |
| 20260503180042 | 12 | 307 | 9.7 | 0.0 | 0.00 | 0.00 | 0.00 | 50 | 977.5 |
| 20260503174532 | 12 | 293 | 9.7 | 0.0 | 0.00 | 0.00 | 0.00 | 49 | 977.5 |
| 20260503173030 | 12 | 267 | 12.9 | 0.0 | 0.00 | 0.00 | 0.00 | 49 | 977.5 |
| 20260503171538 | 11 | 279 | 9.7 | 0.0 | 0.00 | 0.00 | 0.00 | 50 | 977.7 |
| 20260503130109 | 7 | 332 | 6.4 | 0.0 | 0.00 | 0.00 | 0.00 | 71 | 978.3 |